Regional Weather Roundup
Issued by NWS

Home | Current Version | Previous Version | Text Only | Print | Product List | Glossary Off
Versions: 1 2 3 4 5 6 7 8 9 10 11 12 13 14 15 16 17 18 19 20 21 22 23 24 25 26 27 28 29 30 31 32 33 34 35 36 37 38 39 40 41 42 43 44 45 46 47 48 49 50

000
ASUS43 KLMK 300910
RWRKY
KENTUCKY REGIONAL WEATHER ROUNDUP
NATIONAL WEATHER SERVICE LOUISVILLE KY
500 AM EDT SAT APR 30 2016

NOTE "FAIR" INDICATES FEW OR NO CLOUDS BELOW 12,000 FEET
WITH NO SIGNIFICANT WEATHER AND/OR OBSTRUCTIONS TO VISIBILITY.

KYZ001>023-026-027-061>063-070>075-301000-
WESTERN AND SOUTH CENTRAL KENTUCKY

CITY           SKY/WX    TMP DP  RH WIND       PRES   REMARKS
PADUCAH        LGT RAIN  61  58  90 E8        29.85F
HENDERSON      CLOUDY    63  52  67 E6        29.91R
OWENSBORO      CLOUDY    62  55  77 SE5       29.93R
HOPKINSVILLE   LGT RAIN  62  60  91 E7        29.88F
BOWLING GREEN  CLOUDY    63  56  78 NE5       29.92F
GLASGOW        CLOUDY    62  52  71 NE6       29.93S
$$

KYZ024-025-028>034-038-045-046-053-301000-
NORTH CENTRAL KENTUCKY

CITY           SKY/WX    TMP DP  RH WIND       PRES   REMARKS
LOUISVILLE/SDF CLOUDY    61  53  75 E9        29.96S
LOUISVILLE/LOU CLOUDY    60  52  74 E10       29.97S
FORT KNOX      CLOUDY    59  53  80 E8        29.94S
$$

KYZ035>037-039>044-047>052-055>060-089>105-301000-
NORTHEAST KENTUCKY

CITY           SKY/WX    TMP DP  RH WIND       PRES   REMARKS
LEXINGTON      CLOUDY    58  53  84 E12       29.99F
COVINGTON      CLOUDY    53  48  83 E6        30.05R
FRANKFORT      CLOUDY    59  51  75 E8        29.98F
$$

KYZ054-064>069-076>088-106>120-301000-
SOUTHEAST KENTUCKY

CITY           SKY/WX    TMP DP  RH WIND       PRES   REMARKS
JACKSON        CLOUDY    58  51  78 CALM      30.01S
LONDON         CLOUDY    62  50  64 NE3       29.98S
SOMERSET       CLOUDY    61  50  67 E3        29.97S
MIDDLESBORO    CLOUDY    58  56  92 CALM      29.99S
MONTICELLO     CLOUDY    60  55  83 W6        29.97S
$$




USA.gov is the U.S. government's official web portal to all federal, state and local government web resources and services.